Time,TemperatureF,DewpointF,PressureIn,WindDirection,WindDirectionDegrees,WindSpeedMPH,WindSpeedGustMPH,Humidity,HourlyPrecipIn,Conditions,Clouds,dailyrainin,SolarRadiationWatts/m^2,SoftwareType,DateUTC
2013-01-29 00:00:00,47.7,46.9,30.06,WSW,248,2.9,5.0,97,0.00,-DZ,,0.00,0.0,WeatherDisplay:10.37,2013-01-29 05:00:00,
2013-01-29 00:03:00,47.7,46.9,30.06,WSW,242,2.0,4.0,97,0.00,-DZ,,0.00,0.0,WeatherDisplay:10.37,2013-01-29 05:03:00,
2013-01-29 00:08:00,47.7,46.9,30.06,WSW,249,1.7,3.5,97,0.00,-DZ,,0.00,0.0,WeatherDisplay:10.37,2013-01-29 05:08:00,
2013-01-29 00:13:00,47.6,46.8,30.06,WSW,249,0.6,2.0,97,0.00,-DZ,,0.00,0.0,WeatherDisplay:10.37,2013-01-29 05:13:00,
2013-01-29 00:18:00,47.2,46.4,30.06,NNE,18,5.5,9.2,97,0.00,-DZ,,0.00,0.0,WeatherDisplay:10.37,2013-01-29 05:18:00,
2013-01-29 00:23:00,45.8,44.4,30.06,NNE,21,5.5,8.1,95,0.01,-DZ,,0.01,0.0,WeatherDisplay:10.37,2013-01-29 05:23:00,
2013-01-29 00:28:00,44.3,42.7,30.07,NNE,13,1.0,4.6,94,0.01,-DZ,,0.01,0.0,WeatherDisplay:10.37,2013-01-29 05:28:00,
2013-01-29 00:33:00,43.5,41.6,30.06,ENE,61,2.6,4.6,93,0.01,-DZ,,0.01,0.0,WeatherDisplay:10.37,2013-01-29 05:33:00,
2013-01-29 00:38:00,42.9,41.0,30.06,ENE,67,2.7,3.5,93,0.01,-DZ,,0.01,0.0,WeatherDisplay:10.37,2013-01-29 05:38:00,
2013-01-29 00:43:00,42.1,40.2,30.06,NNE,26,1.8,3.5,93,0.01,-DZ,,0.01,0.0,WeatherDisplay:10.37,2013-01-29 05:43:00,
2013-01-29 00:48:00,41.7,40.1,30.06,NE,35,1.5,3.5,94,0.01,-DZ,,0.01,0.0,WeatherDisplay:10.37,2013-01-29 05:48:00,
2013-01-29 00:53:00,41.3,39.7,30.06,ENE,67,2.5,3.5,94,0.01,-DZ,,0.01,0.0,WeatherDisplay:10.37,2013-01-29 05:53:00,
2013-01-29 00:58:00,41.0,39.4,30.06,NE,44,1.9,3.5,94,0.01,-DZ,,0.01,0.0,WeatherDisplay:10.37,2013-01-29 05:58:00,
2013-01-29 01:03:00,40.7,39.4,30.06,NE,45,3.2,4.6,95,0.02,-DZ,,0.02,0.0,WeatherDisplay:10.37,2013-01-29 06:03:00,
2013-01-29 01:08:00,40.5,39.2,30.06,NE,48,2.2,3.5,95,0.02,-DZ,,0.02,0.0,WeatherDisplay:10.37,2013-01-29 06:08:00,
2013-01-29 01:13:00,40.2,38.9,30.06,NNE,33,1.8,2.3,95,0.02,-DZ,,0.02,0.0,WeatherDisplay:10.37,2013-01-29 06:13:00,
2013-01-29 01:18:00,40.1,38.8,30.06,NNE,32,2.5,3.5,95,0.02,-DZ,,0.02,0.0,WeatherDisplay:10.37,2013-01-29 06:18:00,
2013-01-29 01:23:00,39.9,38.6,30.06,NNE,32,1.7,3.5,95,0.01,-DZ,,0.02,0.0,WeatherDisplay:10.37,2013-01-29 06:23:00,
2013-01-29 01:28:00,39.8,38.8,30.05,NE,38,0.8,2.3,96,0.01,-DZ,,0.02,0.0,WeatherDisplay:10.37,2013-01-29 06:28:00,
2013-01-29 01:33:00,39.8,38.8,30.05,ENE,74,0.1,2.3,96,0.01,-DZ,,0.02,0.0,WeatherDisplay:10.37,2013-01-29 06:33:00,
2013-01-29 01:38:00,39.7,38.7,30.05,NE,52,2.3,3.5,96,0.01,-DZ,,0.02,0.0,WeatherDisplay:10.37,2013-01-29 06:38:00,
2013-01-29 01:43:00,39.6,38.6,30.05,ENE,57,1.5,2.3,96,0.01,-DZ,,0.02,0.0,WeatherDisplay:10.37,2013-01-29 06:43:00,
2013-01-29 01:48:00,39.6,38.6,30.05,ENE,59,0.3,2.0,96,0.01,-DZ,,0.02,0.0,WeatherDisplay:10.37,2013-01-29 06:48:00,
2013-01-29 01:53:00,39.5,38.5,30.05,NE,52,1.1,3.5,96,0.01,-DZ,,0.02,0.0,WeatherDisplay:10.37,2013-01-29 06:53:00,
2013-01-29 01:58:00,39.5,38.5,30.05,NE,52,0.0,0.0,96,0.01,-DZ,,0.02,0.0,WeatherDisplay:10.37,2013-01-29 06:58:00,
2013-01-29 02:03:00,39.5,38.5,30.05,NE,52,0.0,1.1,96,0.00,-DZ,,0.02,0.0,WeatherDisplay:10.37,2013-01-29 07:03:00,
2013-01-29 02:08:00,39.5,38.5,30.05,NE,52,0.1,1.1,96,0.00,-DZ,,0.02,0.0,WeatherDisplay:10.37,2013-01-29 07:08:00,
2013-01-29 02:13:00,39.5,38.5,30.05,ENE,59,1.7,2.3,96,0.00,-DZ,,0.02,0.0,WeatherDisplay:10.37,2013-01-29 07:13:00,
2013-01-29 02:18:00,39.5,38.5,30.05,ENE,59,0.2,1.0,96,0.00,-DZ,,0.02,0.0,WeatherDisplay:10.37,2013-01-29 07:18:00,
2013-01-29 02:23:00,39.5,38.5,30.05,ENE,60,0.9,2.3,96,0.00,-DZ,,0.02,0.0,WeatherDisplay:10.37,2013-01-29 07:23:00,
2013-01-29 02:28:00,39.5,38.5,30.05,ENE,60,0.7,1.1,96,0.00,-DZ,,0.02,0.0,WeatherDisplay:10.37,2013-01-29 07:28:00,
2013-01-29 02:33:00,39.5,38.5,30.04,East,90,1.5,2.3,96,0.00,-DZ,,0.02,0.0,WeatherDisplay:10.37,2013-01-29 07:33:00,
2013-01-29 02:38:00,39.6,38.8,30.04,East,91,0.5,2.3,97,0.00,-DZ,,0.02,0.0,WeatherDisplay:10.37,2013-01-29 07:38:00,
2013-01-29 02:43:00,39.6,38.6,30.04,East,91,0.0,1.1,96,0.00,-DZ,,0.02,0.0,WeatherDisplay:10.37,2013-01-29 07:43:00,
2013-01-29 02:48:00,39.6,38.8,30.04,East,93,0.9,1.1,97,0.00,-DZ,,0.02,0.0,WeatherDisplay:10.37,2013-01-29 07:48:00,
2013-01-29 02:53:00,39.6,38.8,30.04,East,80,1.8,3.5,97,0.00,-DZ,,0.02,0.0,WeatherDisplay:10.37,2013-01-29 07:53:00,
2013-01-29 02:58:00,39.7,38.9,30.04,East,80,0.7,2.3,97,0.00,-DZ,,0.02,0.0,WeatherDisplay:10.37,2013-01-29 07:58:00,
2013-01-29 03:03:00,39.7,38.9,30.04,East,80,1.2,2.3,97,0.00,-DZ,,0.02,0.0,WeatherDisplay:10.37,2013-01-29 08:03:00,
2013-01-29 03:08:00,39.7,38.9,30.04,East,80,0.9,2.3,97,0.00,-DZ,,0.02,0.0,WeatherDisplay:10.37,2013-01-29 08:08:00,
2013-01-29 03:13:00,39.8,39.0,30.03,ESE,103,1.4,3.0,97,0.00,-DZ,,0.02,0.0,WeatherDisplay:10.37,2013-01-29 08:13:00,
2013-01-29 03:18:00,39.8,39.0,30.03,ESE,105,1.7,3.5,97,0.00,-DZ,,0.02,0.0,WeatherDisplay:10.37,2013-01-29 08:18:00,
2013-01-29 03:23:00,39.8,39.0,30.03,ESE,105,1.0,2.3,97,0.00,-DZ,,0.02,0.0,WeatherDisplay:10.37,2013-01-29 08:23:00,
2013-01-29 03:28:00,39.9,39.1,30.02,ESE,105,0.3,2.3,97,0.00,-DZ,,0.02,0.0,WeatherDisplay:10.37,2013-01-29 08:28:00,
2013-01-29 03:33:00,39.9,39.1,30.02,ESE,105,0.6,1.1,97,0.00,-DZ,,0.02,0.0,WeatherDisplay:10.37,2013-01-29 08:33:00,
2013-01-29 03:38:00,39.9,39.1,30.02,ESE,105,0.0,0.0,97,0.00,-DZ,,0.02,0.0,WeatherDisplay:10.37,2013-01-29 08:38:00,
2013-01-29 03:43:00,40.0,39.2,30.02,ESE,105,0.0,0.0,97,0.00,-DZ,,0.02,0.0,WeatherDisplay:10.37,2013-01-29 08:43:00,
2013-01-29 03:48:00,40.0,39.2,30.02,ESE,105,0.0,1.1,97,0.00,-DZ,,0.02,0.0,WeatherDisplay:10.37,2013-01-29 08:48:00,
2013-01-29 03:53:00,40.0,39.2,30.02,ESE,105,0.0,0.0,97,0.00,-DZ,,0.02,0.0,WeatherDisplay:10.37,2013-01-29 08:53:00,
2013-01-29 03:58:00,40.1,39.3,30.02,ESE,105,0.0,0.0,97,0.00,-DZ,,0.02,0.0,WeatherDisplay:10.37,2013-01-29 08:58:00,
2013-01-29 04:03:00,40.1,39.3,30.01,ESE,105,0.0,0.0,97,0.00,-DZ,,0.02,0.0,WeatherDisplay:10.37,2013-01-29 09:03:00,
2013-01-29 04:08:00,40.2,39.4,30.01,ESE,105,0.5,1.1,97,0.00,-DZ,,0.02,0.0,WeatherDisplay:10.37,2013-01-29 09:08:00,
2013-01-29 04:13:00,40.2,39.4,30.01,ESE,105,0.0,0.0,97,0.00,-DZ,,0.02,0.0,WeatherDisplay:10.37,2013-01-29 09:13:00,
2013-01-29 04:18:00,40.3,39.5,30.01,ESE,105,0.8,1.1,97,0.00,-DZ,,0.02,0.0,WeatherDisplay:10.37,2013-01-29 09:18:00,
2013-01-29 04:23:00,40.4,39.6,30.01,ESE,105,1.3,2.3,97,0.00,-DZ,,0.02,0.0,WeatherDisplay:10.37,2013-01-29 09:23:00,
2013-01-29 04:28:00,40.4,39.6,30.01,ESE,105,1.1,2.3,97,0.00,-DZ,,0.02,0.0,WeatherDisplay:10.37,2013-01-29 09:28:00,
2013-01-29 04:33:00,40.7,39.9,30.01,SE,132,2.8,3.5,97,0.00,-DZ,,0.02,0.0,WeatherDisplay:10.37,2013-01-29 09:33:00,
2013-01-29 04:38:00,40.9,40.1,30.00,SSE,157,1.7,3.5,97,0.00,-DZ,,0.02,0.0,WeatherDisplay:10.37,2013-01-29 09:38:00,
2013-01-29 04:43:00,41.2,40.7,30.00,South,178,2.8,3.5,98,0.00,-DZ,,0.02,0.0,WeatherDisplay:10.37,2013-01-29 09:43:00,
2013-01-29 04:48:00,42.0,41.5,29.99,SSE,149,2.8,3.5,98,0.00,-DZ,,0.02,0.0,WeatherDisplay:10.37,2013-01-29 09:48:00,
2013-01-29 04:53:00,42.7,42.2,29.99,SSE,162,2.5,3.5,98,0.00,-DZ,,0.02,0.0,WeatherDisplay:10.37,2013-01-29 09:53:00,
2013-01-29 04:58:00,43.6,43.1,29.99,SSE,151,2.2,3.5,98,0.00,-DZ,,0.02,0.0,WeatherDisplay:10.37,2013-01-29 09:58:00,
2013-01-29 05:03:00,44.3,43.8,29.99,SE,144,2.7,3.5,98,0.00,-DZ,,0.02,0.0,WeatherDisplay:10.37,2013-01-29 10:03:00,
2013-01-29 05:08:00,44.9,44.4,29.99,SSE,167,3.1,4.0,98,0.00,-DZ,,0.02,0.0,WeatherDisplay:10.37,2013-01-29 10:08:00,
2013-01-29 05:13:00,45.3,44.8,29.99,South,189,3.6,8.1,98,0.00,-DZ,,0.02,0.0,WeatherDisplay:10.37,2013-01-29 10:13:00,
2013-01-29 05:18:00,45.7,45.2,29.99,South,191,5.5,7.0,98,0.00,-DZ,,0.02,0.0,WeatherDisplay:10.37,2013-01-29 10:18:00,
2013-01-29 05:23:00,46.0,45.5,29.99,South,180,3.0,5.8,98,0.00,-DZ,,0.02,0.0,WeatherDisplay:10.37,2013-01-29 10:23:00,
2013-01-29 05:28:00,46.3,45.8,29.99,SSW,194,4.6,6.9,98,0.00,-DZ,,0.02,0.0,WeatherDisplay:10.37,2013-01-29 10:28:00,
2013-01-29 05:33:00,46.5,46.0,29.98,SSE,166,3.4,8.1,98,0.00,-DZ,,0.02,0.0,WeatherDisplay:10.37,2013-01-29 10:33:00,
2013-01-29 05:38:00,46.7,46.2,29.98,SSE,168,4.0,6.9,98,0.00,-DZ,,0.03,0.0,WeatherDisplay:10.37,2013-01-29 10:38:00,
2013-01-29 05:43:00,46.9,46.4,29.98,South,176,2.8,4.0,98,0.01,-DZ,,0.03,0.0,WeatherDisplay:10.37,2013-01-29 10:43:00,
2013-01-29 05:48:00,47.0,46.5,29.97,South,175,5.1,6.9,98,0.01,-DZ,,0.03,0.0,WeatherDisplay:10.37,2013-01-29 10:48:00,
2013-01-29 05:53:00,47.1,46.6,29.98,South,169,2.4,4.6,98,0.01,-DZ,,0.03,0.0,WeatherDisplay:10.37,2013-01-29 10:53:00,
2013-01-29 05:58:00,47.1,46.6,29.97,SSE,147,3.9,6.9,98,0.01,-DZ,,0.03,0.0,WeatherDisplay:10.37,2013-01-29 10:58:00,
2013-01-29 06:03:00,47.2,46.7,29.97,SE,142,4.0,6.9,98,0.01,OVC,,0.03,0.0,WeatherDisplay:10.37,2013-01-29 11:03:00,
2013-01-29 06:08:00,47.2,46.7,29.97,SSE,166,5.8,8.1,98,0.01,OVC,,0.03,0.0,WeatherDisplay:10.37,2013-01-29 11:08:00,
2013-01-29 06:13:00,47.4,46.9,29.97,South,191,4.8,6.0,98,0.01,OVC,,0.03,0.0,WeatherDisplay:10.37,2013-01-29 11:13:00,
2013-01-29 06:18:00,47.6,47.1,29.97,South,173,3.0,8.1,98,0.01,OVC,,0.03,0.0,WeatherDisplay:10.37,2013-01-29 11:18:00,
2013-01-29 06:23:00,47.7,47.2,29.97,SSE,157,2.9,4.6,98,0.01,OVC,,0.03,0.0,WeatherDisplay:10.37,2013-01-29 11:23:00,
2013-01-29 06:28:00,47.8,47.3,29.96,South,169,3.2,6.9,98,0.01,OVC,,0.03,0.0,WeatherDisplay:10.37,2013-01-29 11:28:00,
2013-01-29 06:33:00,47.9,47.4,29.96,SSE,157,3.9,5.8,98,0.01,OVC,,0.03,0.0,WeatherDisplay:10.37,2013-01-29 11:33:00,
2013-01-29 06:38:00,48.0,47.5,29.96,South,171,5.6,7.0,98,0.01,OVC,,0.03,0.0,WeatherDisplay:10.37,2013-01-29 11:38:00,
2013-01-29 06:43:00,48.0,47.5,29.96,SSE,157,3.8,6.0,98,0.00,OVC,,0.03,0.0,WeatherDisplay:10.37,2013-01-29 11:43:00,
2013-01-29 06:48:00,48.1,47.6,29.96,SSE,159,5.9,8.1,98,0.00,OVC,,0.03,0.0,WeatherDisplay:10.37,2013-01-29 11:48:00,
2013-01-29 06:53:00,48.2,47.7,29.96,South,174,4.7,10.4,98,0.00,OVC,,0.03,0.0,WeatherDisplay:10.37,2013-01-29 11:53:00,
2013-01-29 06:58:00,48.3,47.8,29.96,South,173,7.2,10.4,98,0.00,OVC,,0.03,0.0,WeatherDisplay:10.37,2013-01-29 11:58:00,
2013-01-29 07:03:00,48.5,48.0,29.96,SSE,161,7.9,12.7,98,0.00,OVC,,0.03,0.0,WeatherDisplay:10.37,2013-01-29 12:03:00,
2013-01-29 07:08:00,48.6,48.1,29.96,SSE,161,5.2,9.2,98,0.00,OVC,,0.03,0.0,WeatherDisplay:10.37,2013-01-29 12:08:00,
2013-01-29 07:13:00,48.8,48.3,29.96,South,190,6.4,9.2,98,0.00,OVC,,0.03,0.0,WeatherDisplay:10.37,2013-01-29 12:13:00,
2013-01-29 07:18:00,49.0,48.5,29.96,SSW,201,6.4,10.4,98,0.00,OVC,,0.03,0.0,WeatherDisplay:10.37,2013-01-29 12:18:00,
2013-01-29 07:23:00,49.1,48.6,29.95,SSW,195,7.5,10.4,98,0.00,OVC,,0.03,0.0,WeatherDisplay:10.37,2013-01-29 12:23:00,
2013-01-29 07:28:00,49.3,48.8,29.95,South,170,6.0,9.0,98,0.00,OVC,,0.03,0.0,WeatherDisplay:10.37,2013-01-29 12:28:00,
2013-01-29 07:33:00,49.4,48.9,29.95,South,177,8.0,10.4,98,0.00,OVC,,0.03,0.0,WeatherDisplay:10.37,2013-01-29 12:33:00,
2013-01-29 07:38:00,49.6,49.1,29.95,SSW,197,5.6,9.2,98,0.00,OVC,,0.03,0.0,WeatherDisplay:10.37,2013-01-29 12:38:00,
2013-01-29 07:43:00,49.7,49.2,29.95,SSW,199,4.6,9.0,98,0.00,OVC,,0.03,0.0,WeatherDisplay:10.37,2013-01-29 12:43:00,
2013-01-29 07:48:00,49.9,49.4,29.95,South,178,6.5,9.2,98,0.00,OVC,,0.03,0.0,WeatherDisplay:10.37,2013-01-29 12:48:00,
2013-01-29 07:53:00,50.0,49.5,29.94,South,175,5.8,10.0,98,0.00,OVC,,0.03,5.0,WeatherDisplay:10.37,2013-01-29 12:53:00,
2013-01-29 07:58:00,50.2,49.7,29.94,SW,220,7.0,11.5,98,0.00,OVC,,0.03,7.0,WeatherDisplay:10.37,2013-01-29 12:58:00,
2013-01-29 08:03:00,50.3,49.8,29.94,SSE,163,7.8,10.4,98,0.00,OVC,,0.03,7.0,WeatherDisplay:10.37,2013-01-29 13:03:00,
2013-01-29 08:08:00,50.5,50.0,29.93,SW,230,8.8,11.5,98,0.00,OVC,,0.03,12.0,WeatherDisplay:10.37,2013-01-29 13:08:00,
2013-01-29 08:13:00,50.5,50.0,29.93,South,169,7.3,10.4,98,0.00,OVC,,0.03,18.0,WeatherDisplay:10.37,2013-01-29 13:13:00,
2013-01-29 08:18:00,50.6,50.1,29.93,SSE,156,7.8,12.7,98,0.00,OVC,,0.03,21.0,WeatherDisplay:10.37,2013-01-29 13:18:00,
2013-01-29 08:23:00,50.7,50.2,29.93,South,183,6.3,9.2,98,0.00,OVC,,0.03,28.0,WeatherDisplay:10.37,2013-01-29 13:23:00,
2013-01-29 08:28:00,50.8,50.3,29.93,SSW,207,7.6,11.5,98,0.00,OVC,,0.03,25.0,WeatherDisplay:10.37,2013-01-29 13:28:00,
2013-01-29 08:33:00,50.8,50.3,29.92,SW,219,9.8,15.0,98,0.00,OVC,,0.03,19.0,WeatherDisplay:10.37,2013-01-29 13:33:00,
2013-01-29 08:38:00,50.9,50.4,29.92,South,180,8.2,13.0,98,0.00,OVC,,0.03,25.0,WeatherDisplay:10.37,2013-01-29 13:38:00,
2013-01-29 08:43:00,51.0,50.5,29.92,South,173,6.9,11.0,98,0.00,OVC,,0.03,30.0,WeatherDisplay:10.37,2013-01-29 13:43:00,
2013-01-29 08:48:00,51.1,50.6,29.92,SSW,207,7.0,11.5,98,0.00,OVC,,0.03,33.0,WeatherDisplay:10.37,2013-01-29 13:48:00,
2013-01-29 08:53:00,51.2,50.7,29.92,South,187,8.0,11.5,98,0.00,OVC,,0.03,39.0,WeatherDisplay:10.37,2013-01-29 13:53:00,
2013-01-29 08:58:00,51.3,50.8,29.92,SSW,211,6.3,11.5,98,0.00,OVC,,0.03,51.0,WeatherDisplay:10.37,2013-01-29 13:58:00,
2013-01-29 09:03:00,51.5,51.0,29.92,SSE,167,7.8,11.5,98,0.00,OVC,,0.03,63.0,WeatherDisplay:10.37,2013-01-29 14:03:00,
2013-01-29 09:08:00,51.6,51.1,29.92,SSW,205,7.6,10.4,98,0.00,OVC,,0.03,63.0,WeatherDisplay:10.37,2013-01-29 14:08:00,
2013-01-29 09:13:00,51.8,51.3,29.92,SSW,202,3.1,6.9,98,0.00,OVC,,0.03,53.0,WeatherDisplay:10.37,2013-01-29 14:13:00,
2013-01-29 09:18:00,51.9,51.4,29.92,South,191,7.8,11.5,98,0.00,OVC,,0.03,65.0,WeatherDisplay:10.37,2013-01-29 14:18:00,
2013-01-29 09:23:00,52.1,51.6,29.92,SSW,202,6.7,9.2,98,0.00,OVC,,0.03,60.0,WeatherDisplay:10.37,2013-01-29 14:23:00,
2013-01-29 09:28:00,52.2,51.7,29.92,SSW,196,7.0,13.8,98,0.00,OVC,,0.03,67.0,WeatherDisplay:10.37,2013-01-29 14:28:00,
2013-01-29 09:33:00,52.3,51.8,29.91,SSW,197,10.7,20.7,98,0.00,OVC,,0.03,72.0,WeatherDisplay:10.37,2013-01-29 14:33:00,
2013-01-29 09:38:00,52.4,51.9,29.91,SSW,205,6.3,16.1,98,0.00,OVC,,0.03,88.0,WeatherDisplay:10.37,2013-01-29 14:38:00,
2013-01-29 09:43:00,52.5,52.0,29.91,SSW,211,6.1,11.5,98,0.00,OVC,,0.03,65.0,WeatherDisplay:10.37,2013-01-29 14:43:00,
2013-01-29 09:48:00,52.6,52.1,29.91,SSW,195,4.8,6.9,98,0.00,OVC,,0.03,53.0,WeatherDisplay:10.37,2013-01-29 14:48:00,
2013-01-29 09:53:00,52.8,52.3,29.91,West,268,7.6,19.6,98,0.00,OVC,,0.03,74.0,WeatherDisplay:10.37,2013-01-29 14:53:00,
2013-01-29 09:58:00,52.9,52.4,29.90,SW,234,5.5,10.4,98,0.00,OVC,,0.03,79.0,WeatherDisplay:10.37,2013-01-29 14:58:00,
2013-01-29 10:03:00,53.1,52.6,29.90,SSE,166,8.7,15.0,98,0.00,OVC,,0.03,83.0,WeatherDisplay:10.37,2013-01-29 15:03:00,
2013-01-29 10:08:00,53.6,53.0,29.90,WSW,246,8.2,12.7,98,0.00,OVC,,0.03,88.0,WeatherDisplay:10.37,2013-01-29 15:08:00,
2013-01-29 10:13:00,54.1,53.0,29.90,South,181,6.9,18.0,96,0.00,OVC,,0.03,107.0,WeatherDisplay:10.37,2013-01-29 15:13:00,
2013-01-29 10:18:00,54.4,52.7,29.89,WSW,243,7.9,10.4,94,0.00,OVC,,0.03,120.0,WeatherDisplay:10.37,2013-01-29 15:18:00,
2013-01-29 10:23:00,54.7,52.7,29.89,SSE,155,4.8,8.1,93,0.00,OVC,,0.03,132.0,WeatherDisplay:10.37,2013-01-29 15:23:00,
2013-01-29 10:28:00,54.9,52.9,29.89,SW,223,8.1,12.7,93,0.00,OVC,,0.03,105.0,WeatherDisplay:10.37,2013-01-29 15:28:00,
2013-01-29 10:33:00,55.0,52.7,29.89,South,169,7.7,10.4,92,0.00,OVC,,0.03,123.0,WeatherDisplay:10.37,2013-01-29 15:33:00,
2013-01-29 10:38:00,55.2,52.9,29.90,SW,218,7.2,11.5,92,0.00,OVC,,0.03,111.0,WeatherDisplay:10.37,2013-01-29 15:38:00,
2013-01-29 10:43:00,55.3,52.7,29.91,SSW,211,9.9,13.8,91,0.00,OVC,,0.03,86.0,WeatherDisplay:10.37,2013-01-29 15:43:00,
2013-01-29 10:48:00,55.4,52.8,29.91,WSW,241,6.5,11.5,91,0.00,OVC,,0.03,70.0,WeatherDisplay:10.37,2013-01-29 15:48:00,
2013-01-29 10:53:00,55.4,52.8,29.92,SW,236,6.7,8.1,91,0.00,OVC,,0.03,70.0,WeatherDisplay:10.37,2013-01-29 15:53:00,
2013-01-29 10:58:00,55.5,52.9,29.92,SW,236,7.0,11.5,91,0.00,OVC,,0.03,72.0,WeatherDisplay:10.37,2013-01-29 15:58:00,
2013-01-29 11:03:00,55.6,53.0,29.92,SW,218,6.6,11.5,91,0.00,OVC,,0.03,76.0,WeatherDisplay:10.37,2013-01-29 16:03:00,
2013-01-29 11:08:00,55.7,53.1,29.91,WSW,246,9.3,13.8,91,0.00,OVC,,0.03,77.0,WeatherDisplay:10.37,2013-01-29 16:08:00,
2013-01-29 11:13:00,55.8,53.2,29.91,SW,225,6.5,10.4,91,0.00,OVC,,0.03,60.0,WeatherDisplay:10.37,2013-01-29 16:13:00,
2013-01-29 11:18:00,55.9,53.3,29.91,SSE,165,5.1,10.4,91,0.00,OVC,,0.03,65.0,WeatherDisplay:10.37,2013-01-29 16:18:00,
2013-01-29 11:23:00,56.1,53.5,29.91,SW,235,6.0,11.5,91,0.00,OVC,,0.03,63.0,WeatherDisplay:10.37,2013-01-29 16:23:00,
2013-01-29 11:28:00,56.1,53.5,29.90,SSW,209,4.3,6.9,91,0.00,OVC,,0.03,65.0,WeatherDisplay:10.37,2013-01-29 16:28:00,
2013-01-29 11:33:00,56.2,53.3,29.90,SW,229,4.6,9.2,90,0.00,OVC,,0.03,77.0,WeatherDisplay:10.37,2013-01-29 16:33:00,
2013-01-29 11:38:00,56.3,53.4,29.90,SW,234,4.3,9.2,90,0.00,OVC,,0.03,83.0,WeatherDisplay:10.37,2013-01-29 16:38:00,
2013-01-29 11:43:00,56.5,53.6,29.90,SW,222,5.0,9.2,90,0.00,OVC,,0.03,77.0,WeatherDisplay:10.37,2013-01-29 16:43:00,
2013-01-29 11:48:00,56.6,53.7,29.90,SSW,202,5.0,8.1,90,0.00,OVC,,0.03,79.0,WeatherDisplay:10.37,2013-01-29 16:48:00,
2013-01-29 11:53:00,56.7,53.8,29.89,WSW,252,4.3,11.5,90,0.00,OVC,,0.03,83.0,WeatherDisplay:10.37,2013-01-29 16:53:00,
2013-01-29 11:58:00,56.8,53.6,29.89,SSW,197,5.2,11.5,89,0.00,OVC,,0.03,83.0,WeatherDisplay:10.37,2013-01-29 16:58:00,
2013-01-29 12:03:00,56.9,53.7,29.89,SW,217,5.6,11.5,89,0.00,OVC,,0.03,86.0,WeatherDisplay:10.37,2013-01-29 17:03:00,
2013-01-29 12:08:00,57.1,53.9,29.89,WSW,239,4.2,8.1,89,0.00,OVC,,0.03,95.0,WeatherDisplay:10.37,2013-01-29 17:08:00,
2013-01-29 12:13:00,57.2,54.0,29.88,SSW,207,4.0,6.9,89,0.00,OVC,,0.03,104.0,WeatherDisplay:10.37,2013-01-29 17:13:00,
2013-01-29 12:18:00,57.5,54.3,29.88,SW,225,7.7,12.7,89,0.00,OVC,,0.03,183.0,WeatherDisplay:10.37,2013-01-29 17:18:00,
2013-01-29 12:23:00,57.8,54.3,29.87,SSW,194,6.6,9.2,88,0.00,OVC,,0.03,174.0,WeatherDisplay:10.37,2013-01-29 17:23:00,
2013-01-29 12:28:00,58.1,54.6,29.87,SW,217,9.4,12.7,88,0.00,OVC,,0.03,211.0,WeatherDisplay:10.37,2013-01-29 17:28:00,
2013-01-29 12:33:00,58.4,54.9,29.86,SSW,198,5.4,11.5,88,0.00,OVC,,0.03,200.0,WeatherDisplay:10.37,2013-01-29 17:33:00,
2013-01-29 12:38:00,58.7,54.8,29.86,South,183,6.4,9.2,87,0.00,OVC,,0.03,243.0,WeatherDisplay:10.37,2013-01-29 17:38:00,
2013-01-29 12:43:00,59.0,55.1,29.87,SSE,156,5.7,10.0,87,0.00,OVC,,0.03,239.0,WeatherDisplay:10.37,2013-01-29 17:43:00,
2013-01-29 12:48:00,59.2,55.0,29.86,WSW,242,6.2,10.4,86,0.00,OVC,,0.03,202.0,WeatherDisplay:10.37,2013-01-29 17:48:00,
2013-01-29 12:53:00,59.1,54.9,29.86,South,185,7.7,14.0,86,0.00,OVC,,0.03,130.0,WeatherDisplay:10.37,2013-01-29 17:53:00,
2013-01-29 12:58:00,58.9,54.7,29.85,SW,236,6.8,11.5,86,0.00,OVC,,0.03,88.0,WeatherDisplay:10.37,2013-01-29 17:58:00,
2013-01-29 13:03:00,58.6,54.4,29.86,WSW,244,6.2,10.4,86,0.00,OVC,,0.03,88.0,WeatherDisplay:10.37,2013-01-29 18:03:00,
2013-01-29 13:08:00,58.4,54.5,29.86,SW,223,6.9,11.5,87,0.00,OVC,,0.03,111.0,WeatherDisplay:10.37,2013-01-29 18:08:00,
2013-01-29 13:13:00,58.4,54.5,29.86,SSW,212,5.1,8.1,87,0.00,OVC,,0.03,97.0,WeatherDisplay:10.37,2013-01-29 18:13:00,
2013-01-29 13:18:00,58.4,54.5,29.87,SW,236,3.8,5.8,87,0.00,OVC,,0.03,54.0,WeatherDisplay:10.37,2013-01-29 18:18:00,
2013-01-29 13:23:00,58.2,54.3,29.86,South,179,4.0,6.0,87,0.00,OVC,,0.03,58.0,WeatherDisplay:10.37,2013-01-29 18:23:00,
2013-01-29 13:28:00,58.2,54.3,29.86,South,182,4.2,12.0,87,0.00,OVC,,0.03,125.0,WeatherDisplay:10.37,2013-01-29 18:28:00,
2013-01-29 13:33:00,58.2,54.3,29.85,SSE,158,5.1,9.2,87,0.00,OVC,,0.03,77.0,WeatherDisplay:10.37,2013-01-29 18:33:00,
2013-01-29 13:38:00,58.3,54.4,29.84,SSW,195,6.0,10.4,87,0.00,OVC,,0.03,134.0,WeatherDisplay:10.37,2013-01-29 18:38:00,
2013-01-29 13:43:00,58.4,54.5,29.85,SSW,203,3.4,6.0,87,0.00,OVC,,0.03,107.0,WeatherDisplay:10.37,2013-01-29 18:43:00,
2013-01-29 13:48:00,58.5,54.6,29.84,SSW,198,5.2,9.2,87,0.00,OVC,,0.03,162.0,WeatherDisplay:10.37,2013-01-29 18:48:00,
2013-01-29 13:53:00,58.8,54.9,29.84,SW,228,4.1,5.8,87,0.00,OVC,,0.03,158.0,WeatherDisplay:10.37,2013-01-29 18:53:00,
2013-01-29 13:58:00,59.0,55.1,29.84,SSW,196,5.5,10.0,87,0.00,OVC,,0.03,146.0,WeatherDisplay:10.37,2013-01-29 18:58:00,
2013-01-29 14:03:00,59.3,55.1,29.84,South,189,3.5,10.0,86,0.00,OVC,,0.03,209.0,WeatherDisplay:10.37,2013-01-29 19:03:00,
2013-01-29 14:08:00,59.7,55.2,29.84,SW,233,7.7,10.4,85,0.00,OVC,,0.03,199.0,WeatherDisplay:10.37,2013-01-29 19:08:00,
2013-01-29 14:13:00,60.0,55.5,29.83,South,182,3.3,6.9,85,0.00,OVC,,0.03,195.0,WeatherDisplay:10.37,2013-01-29 19:13:00,
2013-01-29 14:18:00,60.2,55.7,29.84,SW,233,3.9,6.9,85,0.00,OVC,,0.03,192.0,WeatherDisplay:10.37,2013-01-29 19:18:00,
2013-01-29 14:23:00,60.4,55.5,29.84,SSW,204,6.4,11.5,84,0.00,OVC,,0.03,174.0,WeatherDisplay:10.37,2013-01-29 19:23:00,
2013-01-29 14:28:00,60.6,55.7,29.83,SW,218,3.6,12.0,84,0.00,OVC,,0.03,178.0,WeatherDisplay:10.37,2013-01-29 19:28:00,
2013-01-29 14:33:00,60.8,55.6,29.83,SSW,211,6.2,10.4,83,0.00,OVC,,0.03,171.0,WeatherDisplay:10.37,2013-01-29 19:33:00,
2013-01-29 14:38:00,60.8,55.6,29.83,SW,225,8.1,10.4,83,0.00,OVC,,0.03,146.0,WeatherDisplay:10.37,2013-01-29 19:38:00,
2013-01-29 14:43:00,60.8,55.6,29.83,SSW,200,5.4,11.5,83,0.00,OVC,,0.03,141.0,WeatherDisplay:10.37,2013-01-29 19:43:00,
2013-01-29 14:48:00,60.8,55.6,29.83,SW,217,4.2,10.4,83,0.00,OVC,,0.03,137.0,WeatherDisplay:10.37,2013-01-29 19:48:00,
2013-01-29 14:53:00,60.8,55.6,29.83,SW,225,6.4,10.4,83,0.00,OVC,,0.03,146.0,WeatherDisplay:10.37,2013-01-29 19:53:00,
2013-01-29 14:57:00,60.8,55.6,29.83,SW,227,7.9,12.7,83,0.00,OVC,,0.03,121.0,WeatherDisplay:10.37,2013-01-29 19:57:00,
2013-01-29 15:02:00,60.8,55.6,29.83,SSW,205,4.3,8.1,83,0.00,-RA,,0.03,130.0,WeatherDisplay:10.37,2013-01-29 20:02:00,
2013-01-29 15:07:00,60.7,55.8,29.83,SSW,208,6.3,10.4,84,0.00,-RA,,0.03,128.0,WeatherDisplay:10.37,2013-01-29 20:07:00,
2013-01-29 15:12:00,60.6,55.7,29.83,South,178,4.4,5.8,84,0.00,-RA,,0.03,74.0,WeatherDisplay:10.37,2013-01-29 20:12:00,
2013-01-29 15:17:00,60.4,55.9,29.83,SW,219,6.2,11.5,85,0.00,-RA,,0.03,40.0,WeatherDisplay:10.37,2013-01-29 20:17:00,
2013-01-29 15:22:00,60.0,56.1,29.83,SW,215,6.1,8.1,87,0.00,-RA,,0.03,19.0,WeatherDisplay:10.37,2013-01-29 20:22:00,
2013-01-29 15:27:00,59.4,56.2,29.83,South,171,3.8,7.0,89,0.01,-RA,,0.04,72.0,WeatherDisplay:10.37,2013-01-29 20:27:00,
2013-01-29 15:32:00,58.8,55.9,29.83,SW,216,5.3,6.9,90,0.01,-RA,,0.04,44.0,WeatherDisplay:10.37,2013-01-29 20:32:00,
2013-01-29 15:37:00,58.4,55.8,29.83,South,179,3.0,6.0,91,0.01,-RA,,0.04,49.0,WeatherDisplay:10.37,2013-01-29 20:37:00,
2013-01-29 15:42:00,58.1,55.8,29.83,WSW,242,4.6,5.8,92,0.01,-RA,,0.04,47.0,WeatherDisplay:10.37,2013-01-29 20:42:00,
2013-01-29 15:47:00,58.0,55.7,29.83,SSW,198,4.3,6.0,92,0.01,-RA,,0.04,84.0,WeatherDisplay:10.37,2013-01-29 20:47:00,
2013-01-29 15:52:00,58.1,55.8,29.83,SSW,200,8.1,11.5,92,0.01,-RA,,0.04,53.0,WeatherDisplay:10.37,2013-01-29 20:52:00,
2013-01-29 15:57:00,58.1,55.8,29.83,SSW,206,5.3,10.4,92,0.01,-RA,,0.04,67.0,WeatherDisplay:10.37,2013-01-29 20:57:00,
2013-01-29 16:02:00,58.0,55.7,29.83,SSW,213,7.4,11.5,92,0.01,OVC,,0.04,42.0,WeatherDisplay:10.37,2013-01-29 21:02:00,
2013-01-29 16:07:00,58.1,55.8,29.83,SSW,213,5.0,15.0,92,0.01,OVC,,0.04,25.0,WeatherDisplay:10.37,2013-01-29 21:07:00,
2013-01-29 16:12:00,58.0,55.7,29.82,SW,214,4.0,8.0,92,0.02,RA,,0.05,14.0,WeatherDisplay:10.37,2013-01-29 21:12:00,
2013-01-29 16:17:00,58.0,56.0,29.82,SW,221,7.3,13.8,93,0.03,RA,,0.06,7.0,WeatherDisplay:10.37,2013-01-29 21:17:00,
2013-01-29 16:22:00,57.9,55.9,29.83,SSE,161,6.6,11.5,93,0.05,RA,,0.08,9.0,WeatherDisplay:10.37,2013-01-29 21:22:00,
2013-01-29 16:27:00,57.8,55.8,29.82,SSW,193,6.1,8.1,93,0.05,RA,,0.09,7.0,WeatherDisplay:10.37,2013-01-29 21:27:00,
2013-01-29 16:32:00,57.8,55.8,29.82,SSW,202,5.9,8.1,93,0.06,RA,,0.10,14.0,WeatherDisplay:10.37,2013-01-29 21:32:00,
2013-01-29 16:37:00,57.7,56.0,29.82,SW,225,3.9,6.9,94,0.06,RA,,0.10,14.0,WeatherDisplay:10.37,2013-01-29 21:37:00,
2013-01-29 16:42:00,57.7,56.0,29.82,South,171,3.6,5.8,94,0.06,OVC,,0.10,21.0,WeatherDisplay:10.37,2013-01-29 21:42:00,
2013-01-29 16:47:00,57.6,55.9,29.82,SSW,212,2.9,4.6,94,0.06,OVC,,0.10,23.0,WeatherDisplay:10.37,2013-01-29 21:47:00,
2013-01-29 16:52:00,57.6,55.9,29.81,South,175,3.2,4.0,94,0.06,OVC,,0.10,26.0,WeatherDisplay:10.37,2013-01-29 21:52:00,
2013-01-29 16:57:00,57.6,55.9,29.81,South,176,3.4,5.8,94,0.06,OVC,,0.10,19.0,WeatherDisplay:10.37,2013-01-29 21:57:00,
2013-01-29 17:02:00,57.6,55.9,29.81,South,182,3.0,6.9,94,0.08,-RA,,0.12,16.0,WeatherDisplay:10.37,2013-01-29 22:02:00,
2013-01-29 17:07:00,57.6,55.9,29.81,SSW,207,2.0,3.5,94,0.08,-RA,,0.12,14.0,WeatherDisplay:10.37,2013-01-29 22:07:00,
2013-01-29 17:12:00,57.5,55.8,29.81,SSE,157,2.1,5.8,94,0.09,-RA,,0.14,9.0,WeatherDisplay:10.37,2013-01-29 22:12:00,
2013-01-29 17:17:00,57.5,56.1,29.81,SSE,150,3.8,6.9,95,0.08,-RA,,0.14,7.0,WeatherDisplay:10.37,2013-01-29 22:17:00,
2013-01-29 17:22:00,57.4,55.7,29.81,SSE,162,5.8,10.4,94,0.06,-RA,,0.14,0.0,WeatherDisplay:10.37,2013-01-29 22:22:00,
2013-01-29 17:27:00,57.3,55.6,29.80,South,186,5.6,6.9,94,0.06,-RA,,0.15,0.0,WeatherDisplay:10.37,2013-01-29 22:27:00,
2013-01-29 17:32:00,57.3,55.6,29.80,SSE,164,3.7,5.0,94,0.06,-RA,,0.16,5.0,WeatherDisplay:10.37,2013-01-29 22:32:00,
2013-01-29 17:37:00,57.2,55.8,29.80,South,171,2.6,3.5,95,0.06,-RA,,0.16,0.0,WeatherDisplay:10.37,2013-01-29 22:37:00,
2013-01-29 17:42:00,57.1,55.7,29.80,South,172,4.0,6.9,95,0.06,-RA,,0.16,0.0,WeatherDisplay:10.37,2013-01-29 22:42:00,
2013-01-29 17:47:00,57.1,55.7,29.80,SSE,147,4.4,7.0,95,0.06,-RA,,0.16,0.0,WeatherDisplay:10.37,2013-01-29 22:47:00,
2013-01-29 17:52:00,57.0,55.6,29.80,SSW,194,2.3,4.6,95,0.06,-RA,,0.16,0.0,WeatherDisplay:10.37,2013-01-29 22:52:00,
2013-01-29 17:57:00,57.0,55.6,29.79,South,169,2.3,3.5,95,0.07,-RA,,0.17,0.0,WeatherDisplay:10.37,2013-01-29 22:57:00,
2013-01-29 18:02:00,56.9,55.5,29.79,SE,144,3.7,4.6,95,0.05,RA,,0.17,0.0,WeatherDisplay:10.37,2013-01-29 23:02:00,
2013-01-29 18:07:00,56.9,55.5,29.79,SSE,149,0.8,3.0,95,0.05,OVC,,0.17,0.0,WeatherDisplay:10.37,2013-01-29 23:07:00,
2013-01-29 18:12:00,56.8,55.4,29.79,SSW,193,0.3,3.5,95,0.03,OVC,,0.17,0.0,WeatherDisplay:10.37,2013-01-29 23:12:00,
2013-01-29 18:17:00,56.7,55.3,29.79,South,175,1.1,3.0,95,0.03,OVC,,0.17,0.0,WeatherDisplay:10.37,2013-01-29 23:17:00,
2013-01-29 18:22:00,56.6,55.2,29.79,South,190,1.8,3.5,95,0.03,OVC,,0.17,0.0,WeatherDisplay:10.37,2013-01-29 23:22:00,
2013-01-29 18:27:00,56.6,55.2,29.79,SSW,202,0.2,0.0,95,0.03,RA,,0.18,0.0,WeatherDisplay:10.37,2013-01-29 23:27:00,
2013-01-29 18:32:00,56.5,55.1,29.79,SSW,203,0.8,2.3,95,0.02,RA,,0.18,0.0,WeatherDisplay:10.37,2013-01-29 23:32:00,
2013-01-29 18:37:00,56.4,55.0,29.79,SSW,204,0.2,1.0,95,0.02,OVC,,0.18,0.0,WeatherDisplay:10.37,2013-01-29 23:37:00,
2013-01-29 18:42:00,56.3,54.9,29.78,SSW,204,0.0,0.0,95,0.02,OVC,,0.18,0.0,WeatherDisplay:10.37,2013-01-29 23:42:00,
2013-01-29 18:47:00,56.2,54.8,29.78,SSW,204,0.2,1.1,95,0.02,OVC,,0.18,0.0,WeatherDisplay:10.37,2013-01-29 23:47:00,
2013-01-29 18:52:00,56.1,54.7,29.78,SSW,204,0.0,0.0,95,0.02,OVC,,0.18,0.0,WeatherDisplay:10.37,2013-01-29 23:52:00,
2013-01-29 18:57:00,56.0,54.6,29.78,SSW,204,1.1,2.3,95,0.01,OVC,,0.18,0.0,WeatherDisplay:10.37,2013-01-29 23:57:00,
2013-01-29 19:02:00,55.7,54.0,29.78,SSW,204,1.6,2.3,94,0.01,OVC,,0.18,0.0,WeatherDisplay:10.37,2013-01-30 00:02:00,
2013-01-29 19:07:00,55.5,53.8,29.78,SSW,204,0.9,2.3,94,0.01,OVC,,0.18,0.0,WeatherDisplay:10.37,2013-01-30 00:07:00,
2013-01-29 19:12:00,55.3,53.6,29.77,SSE,166,1.2,2.3,94,0.01,OVC,,0.18,0.0,WeatherDisplay:10.37,2013-01-30 00:12:00,
2013-01-29 19:17:00,55.2,53.8,29.77,SE,146,1.4,2.3,95,0.01,OVC,,0.18,0.0,WeatherDisplay:10.37,2013-01-30 00:17:00,
2013-01-29 19:22:00,55.0,53.6,29.76,SE,137,0.9,1.1,95,0.01,OVC,,0.18,0.0,WeatherDisplay:10.37,2013-01-30 00:22:00,
2013-01-29 19:27:00,54.9,53.5,29.76,SE,137,1.3,2.3,95,0.00,OVC,,0.18,0.0,WeatherDisplay:10.37,2013-01-30 00:27:00,
2013-01-29 19:32:00,54.8,53.4,29.76,SE,144,2.2,3.5,95,0.00,OVC,,0.18,0.0,WeatherDisplay:10.37,2013-01-30 00:32:00,
2013-01-29 19:37:00,54.7,53.3,29.76,SSE,163,0.4,2.3,95,0.00,OVC,,0.18,0.0,WeatherDisplay:10.37,2013-01-30 00:37:00,
2013-01-29 19:42:00,54.7,53.6,29.76,SSE,168,1.6,3.5,96,0.00,OVC,,0.18,0.0,WeatherDisplay:10.37,2013-01-30 00:42:00,
2013-01-29 19:47:00,54.7,53.6,29.76,SSE,152,1.4,4.6,96,0.00,OVC,,0.18,0.0,WeatherDisplay:10.37,2013-01-30 00:47:00,
2013-01-29 19:52:00,54.7,53.6,29.76,South,181,2.3,3.5,96,0.00,OVC,,0.18,0.0,WeatherDisplay:10.37,2013-01-30 00:52:00,
2013-01-29 19:57:00,54.8,53.7,29.76,South,171,2.5,4.6,96,0.00,OVC,,0.18,0.0,WeatherDisplay:10.37,2013-01-30 00:57:00,
2013-01-29 20:02:00,54.8,53.7,29.76,SW,215,2.1,3.5,96,0.00,OVC,,0.18,0.0,WeatherDisplay:10.37,2013-01-30 01:02:00,
2013-01-29 20:07:00,54.8,53.7,29.76,South,176,1.3,3.0,96,0.00,OVC,,0.18,0.0,WeatherDisplay:10.37,2013-01-30 01:07:00,
2013-01-29 20:12:00,54.7,53.6,29.75,SSW,200,2.3,5.0,96,0.00,OVC,,0.18,0.0,WeatherDisplay:10.37,2013-01-30 01:12:00,
2013-01-29 20:17:00,54.8,53.7,29.75,SE,145,6.1,9.2,96,0.00,OVC,,0.18,0.0,WeatherDisplay:10.37,2013-01-30 01:17:00,
2013-01-29 20:22:00,54.9,53.8,29.75,SSE,163,4.7,9.2,96,0.00,OVC,,0.18,0.0,WeatherDisplay:10.37,2013-01-30 01:22:00,
2013-01-29 20:27:00,55.1,53.7,29.75,South,184,5.8,9.0,95,0.00,OVC,,0.18,0.0,WeatherDisplay:10.37,2013-01-30 01:27:00,
2013-01-29 20:32:00,55.4,53.7,29.75,SSW,209,6.0,13.8,94,0.00,OVC,,0.18,0.0,WeatherDisplay:10.37,2013-01-30 01:32:00,
2013-01-29 20:37:00,55.8,53.5,29.74,SSE,153,6.6,13.8,92,0.00,OVC,,0.18,0.0,WeatherDisplay:10.37,2013-01-30 01:37:00,
2013-01-29 20:42:00,56.1,53.5,29.74,South,188,6.2,10.0,91,0.00,OVC,,0.18,0.0,WeatherDisplay:10.37,2013-01-30 01:42:00,
2013-01-29 20:47:00,56.5,53.6,29.74,South,181,8.4,13.8,90,0.00,OVC,,0.18,0.0,WeatherDisplay:10.37,2013-01-30 01:47:00,
2013-01-29 20:52:00,56.8,53.6,29.73,SSE,161,7.5,10.0,89,0.00,OVC,,0.18,0.0,WeatherDisplay:10.37,2013-01-30 01:52:00,
2013-01-29 20:57:00,57.2,53.7,29.73,South,188,6.6,19.6,88,0.00,OVC,,0.18,0.0,WeatherDisplay:10.37,2013-01-30 01:57:00,
2013-01-29 21:02:00,57.6,53.4,29.73,SSW,194,8.5,13.8,86,0.00,BKN,,0.18,0.0,WeatherDisplay:10.37,2013-01-30 02:02:00,
2013-01-29 21:07:00,57.7,53.2,29.72,South,173,11.6,16.0,85,0.00,BKN,,0.18,0.0,WeatherDisplay:10.37,2013-01-30 02:07:00,
2013-01-29 21:12:00,58.0,53.5,29.71,SSW,194,7.8,17.3,85,0.00,BKN,,0.18,0.0,WeatherDisplay:10.37,2013-01-30 02:12:00,
2013-01-29 21:17:00,58.2,53.4,29.71,South,180,10.2,15.0,84,0.00,BKN,,0.18,0.0,WeatherDisplay:10.37,2013-01-30 02:17:00,
2013-01-29 21:22:00,58.5,53.4,29.71,SSE,155,10.0,16.1,83,0.00,BKN,,0.18,0.0,WeatherDisplay:10.37,2013-01-30 02:22:00,
2013-01-29 21:27:00,58.7,53.5,29.71,SW,227,7.8,15.0,83,0.00,BKN,,0.18,0.0,WeatherDisplay:10.37,2013-01-30 02:27:00,
2013-01-29 21:32:00,58.9,53.4,29.71,SW,219,9.8,16.1,82,0.00,BKN,,0.18,0.0,WeatherDisplay:10.37,2013-01-30 02:32:00,
2013-01-29 21:37:00,59.2,53.4,29.70,South,175,12.0,14.0,81,0.00,BKN,,0.18,0.0,WeatherDisplay:10.37,2013-01-30 02:37:00,
2013-01-29 21:42:00,59.5,53.7,29.69,South,173,10.0,13.8,81,0.00,BKN,,0.18,0.0,WeatherDisplay:10.37,2013-01-30 02:42:00,
2013-01-29 21:47:00,59.6,53.4,29.69,South,186,7.2,18.4,80,0.00,BKN,,0.18,0.0,WeatherDisplay:10.37,2013-01-30 02:47:00,
2013-01-29 21:52:00,59.7,53.5,29.69,South,191,11.0,17.3,80,0.00,BKN,,0.18,0.0,WeatherDisplay:10.37,2013-01-30 02:52:00,
2013-01-29 21:57:00,59.9,53.7,29.69,SSW,200,10.9,12.7,80,0.00,BKN,,0.18,0.0,WeatherDisplay:10.37,2013-01-30 02:57:00,
2013-01-29 22:02:00,60.0,53.5,29.69,SW,225,8.8,12.7,79,0.00,BKN,,0.18,0.0,WeatherDisplay:10.37,2013-01-30 03:02:00,
2013-01-29 22:07:00,60.1,53.6,29.69,South,188,8.1,11.5,79,0.00,BKN,,0.18,0.0,WeatherDisplay:10.37,2013-01-30 03:07:00,
2013-01-29 22:12:00,60.2,53.7,29.68,SSW,202,6.6,13.8,79,0.00,BKN,,0.18,0.0,WeatherDisplay:10.37,2013-01-30 03:12:00,
2013-01-29 22:17:00,60.2,53.7,29.68,South,188,7.4,19.0,79,0.00,BKN,,0.18,0.0,WeatherDisplay:10.37,2013-01-30 03:17:00,
2013-01-29 22:22:00,60.2,53.7,29.67,South,171,8.6,12.7,79,0.00,BKN,,0.18,0.0,WeatherDisplay:10.37,2013-01-30 03:22:00,
2013-01-29 22:27:00,60.3,53.4,29.67,SSW,197,11.1,23.0,78,0.00,BKN,,0.18,0.0,WeatherDisplay:10.37,2013-01-30 03:27:00,
2013-01-29 22:32:00,60.3,53.4,29.68,SSW,202,11.6,19.6,78,0.00,BKN,,0.18,0.0,WeatherDisplay:10.37,2013-01-30 03:32:00,
2013-01-29 22:37:00,60.3,53.4,29.67,SSE,158,14.8,20.7,78,0.00,BKN,,0.18,0.0,WeatherDisplay:10.37,2013-01-30 03:37:00,
2013-01-29 22:42:00,60.4,53.5,29.67,SSW,209,12.8,18.4,78,0.00,BKN,,0.18,0.0,WeatherDisplay:10.37,2013-01-30 03:42:00,
2013-01-29 22:47:00,60.4,53.5,29.66,South,190,10.1,11.5,78,0.00,BKN,,0.18,0.0,WeatherDisplay:10.37,2013-01-30 03:47:00,
2013-01-29 22:52:00,60.4,53.5,29.66,South,190,9.8,19.6,78,0.00,BKN,,0.18,0.0,WeatherDisplay:10.37,2013-01-30 03:52:00,
2013-01-29 22:57:00,60.4,53.5,29.65,South,178,9.6,16.1,78,0.00,BKN,,0.18,0.0,WeatherDisplay:10.37,2013-01-30 03:57:00,
2013-01-29 23:02:00,60.4,53.5,29.65,SW,232,8.5,18.4,78,0.00,BKN,,0.18,0.0,WeatherDisplay:10.37,2013-01-30 04:02:00,
2013-01-29 23:07:00,60.4,53.9,29.65,SSW,192,7.1,15.0,79,0.00,BKN,,0.18,0.0,WeatherDisplay:10.37,2013-01-30 04:07:00,
2013-01-29 23:12:00,60.4,53.9,29.65,SW,227,6.7,18.4,79,0.00,BKN,,0.18,0.0,WeatherDisplay:10.37,2013-01-30 04:12:00,
2013-01-29 23:17:00,60.5,54.0,29.64,South,172,12.6,21.9,79,0.00,BKN,,0.18,0.0,WeatherDisplay:10.37,2013-01-30 04:17:00,
2013-01-29 23:22:00,60.6,54.0,29.64,SSW,200,6.2,17.3,79,0.00,BKN,,0.18,0.0,WeatherDisplay:10.37,2013-01-30 04:22:00,
2013-01-29 23:27:00,60.6,54.0,29.64,South,190,10.9,12.7,79,0.00,BKN,,0.18,0.0,WeatherDisplay:10.37,2013-01-30 04:27:00,
2013-01-29 23:32:00,60.6,54.0,29.63,South,186,11.2,18.4,79,0.00,BKN,,0.18,0.0,WeatherDisplay:10.37,2013-01-30 04:32:00,
2013-01-29 23:37:00,60.6,54.0,29.63,South,170,12.1,20.7,79,0.00,BKN,,0.18,0.0,WeatherDisplay:10.37,2013-01-30 04:37:00,
2013-01-29 23:42:00,60.8,54.2,29.63,SE,130,10.3,18.4,79,0.00,BKN,,0.18,0.0,WeatherDisplay:10.37,2013-01-30 04:42:00,
2013-01-29 23:48:00,60.8,54.2,29.63,SSE,167,8.8,16.1,79,0.00,BKN,,0.18,0.0,WeatherDisplay:10.37,2013-01-30 04:48:00,
2013-01-29 23:53:00,60.7,54.1,29.63,SSW,213,10.5,16.1,79,0.00,BKN,,0.18,0.0,WeatherDisplay:10.37,2013-01-30 04:53:00,
2013-01-29 23:58:00,60.7,54.1,29.62,South,183,11.9,18.4,79,0.00,BKN,,0.18,0.0,WeatherDisplay:10.37,2013-01-30 04:58:00,